Oakland, CA

3:06 AM PDT on October 16, 2019 (GMT -0700)
Metro Oakland International

Weather History for KOAK - August, 2019

Change the Weather History Date:

Tuesday, August 13, 2019

  Actual Average Record
Temperature  
Mean Temperature 72 °F 64 °F  
Max Temperature 85 °F 72 °F 87 °F (1965)
Min Temperature 58 °F 56 °F 50 °F (2000)
Degree Days  
Heating Degree Days 0 2  
Month to date heating degree days 0 27  
Since 1 June heating degree days 47 213  
Since 1 July heating degree days 15 110  
Cooling Degree Days 7 1  
Month to date cooling degree days 46 5  
Year to date cooling degree days 172 57  
Since 1 June cooling degree days 163 41  
Growing Degree Days 20 (Base 50)    
Moisture  
Dew Point 57 °F    
Average Humidity 62    
Maximum Humidity 86    
Minimum Humidity 37    
Precipitation  
Precipitation 0.00 in 0.00 in 0.00 in (2019)
Month to date precipitation T 0.01  
Year to date precipitation 15.71 13.24  
Sea Level Pressure  
Sea Level Pressure 29.96 in    
Wind  
Wind Speed 8 mph (West)    
Max Wind Speed 16 mph    
Max Gust Speed 19 mph    
Visibility 10 miles    
Events      
T = Trace of Precipitation, MM = Missing Value Source: NWS Daily Summary

Daily Weather History Graph

Daily Weather History Graph

Search for Another Location

Airport or City:

Astronomy

Aug. 13, 2019 Rise Set
Actual Time 6:22 AM PDT 8:04 PM PDT
Civil Twilight 5:54 AM PDT 8:32 PM PDT
Nautical Twilight 5:20 AM PDT 9:06 PM PDT
Astronomical Twilight 4:44 AM PDT 9:41 PM PDT
Moon 7:20 PM PDT (8/13) 4:31 AM PDT (8/13)
Length of Visible Light 14h 37m
Length of Day
13h 41m
Waxing Gibbous, 97% of the Moon is Illuminated
Aug 13
Waxing Gibbous
Aug 15
Full
Aug 23
Last Quarter
Aug 30
New
Sep 5
First Quarter

Hourly Weather History & Observations

Time (PDT) Temp. Heat Index Dew Point Humidity Pressure Visibility Wind Dir Wind Speed Gust Speed Precip Events Conditions
12:53 AM 64.9 °F - 57.0 °F 75% 29.97 in 10.0 mi SSW 8.1 mph - N/A   Partly Cloudy
1:53 AM 64.9 °F - 57.0 °F 75% 29.96 in 10.0 mi SW 6.9 mph - N/A   Partly Cloudy
2:53 AM 64.9 °F - 57.0 °F 75% 29.96 in 10.0 mi SSW 6.9 mph - N/A   Partly Cloudy
3:53 AM 64.0 °F - 55.9 °F 75% 29.95 in 10.0 mi SSW 4.6 mph - N/A   Partly Cloudy
4:53 AM 64.0 °F - 57.0 °F 78% 29.95 in 10.0 mi SW 3.5 mph - N/A   Partly Cloudy
5:53 AM 57.9 °F - 53.1 °F 84% 29.95 in 10.0 mi Calm Calm - N/A   Partly Cloudy
6:53 AM 60.1 °F - 55.9 °F 86% 29.97 in 10.0 mi North 3.5 mph - N/A   Partly Cloudy
7:53 AM 66.0 °F - 57.9 °F 75% 29.97 in 10.0 mi Calm Calm - N/A   Partly Cloudy
8:53 AM 68.0 °F - 59.0 °F 73% 29.98 in 10.0 mi WSW 3.5 mph - N/A   Partly Cloudy
9:53 AM 70.0 °F - 60.1 °F 71% 29.99 in 10.0 mi WSW 5.8 mph - N/A   Partly Cloudy
10:53 AM 73.0 °F - 59.0 °F 61% 30.00 in 10.0 mi WSW 5.8 mph - N/A   Partly Cloudy
11:53 AM 75.0 °F - 55.9 °F 51% 29.99 in 10.0 mi WSW 4.6 mph - N/A   Partly Cloudy
12:53 PM 82.9 °F 81.8 °F 53.1 °F 36% 29.98 in 10.0 mi NW 9.2 mph - N/A   Clear
1:53 PM 82.0 °F 82.0 °F 57.9 °F 44% 29.96 in 10.0 mi WNW 15.0 mph - N/A   Clear
2:53 PM 82.0 °F 81.7 °F 57.0 °F 42% 29.95 in 10.0 mi WNW 16.1 mph - N/A   Clear
3:53 PM 80.1 °F 80.2 °F 55.9 °F 43% 29.94 in 10.0 mi NW 15.0 mph - N/A   Clear
4:53 PM 80.1 °F 80.1 °F 55.0 °F 42% 29.93 in 10.0 mi WNW 13.8 mph - N/A   Clear
5:53 PM 78.1 °F - 57.0 °F 48% 29.93 in 10.0 mi WNW 13.8 mph - N/A   Clear
6:53 PM 75.0 °F - 57.9 °F 55% 29.92 in 10.0 mi WNW 10.4 mph - N/A   Clear
7:53 PM 71.1 °F - 57.9 °F 63% 29.92 in 10.0 mi WNW 12.7 mph - N/A   Clear
8:53 PM 68.0 °F - 57.9 °F 70% 29.94 in 10.0 mi WNW 8.1 mph - N/A   Clear
9:53 PM 68.0 °F - 57.9 °F 70% 29.96 in 10.0 mi West 9.2 mph - N/A   Clear
10:53 PM 64.9 °F - 57.0 °F 75% 29.96 in 10.0 mi WNW 8.1 mph - N/A   Clear
11:53 PM 64.0 °F - 55.9 °F 75% 29.96 in 10.0 mi WNW 5.8 mph - N/A   Clear